Other Public Products
Issued by NWS Charleston, SC

Current Version | Previous Version | Text Only | Print | Product List | Glossary Off
Versions: 1 2 3 4 5 6 7 8 9 10 11 12 13 14 15 16 17 18 19 20 21 22 23 24 25 26 27 28 29 30 31 32 33 34 35 36 37 38 39 40 41 42 43 44 45 46 47 48 49 50

000
FPUS82 KCHS 221927
OPUCHS

TEST...KCHS/KSAV Gateway Observations...TEST
National Weather Service Charleston SC
300 PM EDT FRI SEP 22 2017

NOTE: "fair" indicates few or no clouds below 12,000 feet with no
significant weather and/or obstructions to visibility.

SCZ050-WAZ558-NCZ071-TXZ119-213-PAZ071-DCZ001-FLZ074-172-MI076-
NYZ176-178-MAZ016-IL014-TNZ027-NJZ106-GAZ044-MD014-222000-

...Gateway Observations for Charleston International...

CITY           SKY/WX    TMP DP  RH WIND       PRES   REMARKS
Chas Airport   MOSUNNY   87  69  54 NE9       29.99F HX  91
Seattle        MOSUNNY   61  47  59 W8        30.06F
Charlotte      MOSUNNY   87  64  46 SE6       30.06F
Dallas DFW     PTSUNNY   90  69  50 SE12G20   29.94F HX  94
Dallas Love    PTSUNNY   89  68  49 SE15      29.95F HX  93
Philladelphia  PTSUNNY   82  55  39 NW13      29.97F
Wash National  CLOUDY    83  66  56 NW10      30.02F
Baltimore      CLOUDY    81  65  58 NW10      30.00F
Miami          CLOUDY    78  78 100 CALM      29.86F
Detroit        MOSUNNY   87  70  56 S5        30.10F HX  92
Newark         PTSUNNY   85  55  35 NW17      29.95F
Laguardia      MOSUNNY   80  58  46 N14G24    29.94F
J F K          PTSUNNY   83  57  41 N17G26    29.94F
Boston Logan   CLOUDY    60  57  89 N22G32    29.99F
Ft. Lauderdale CLOUDY    83  77  82 NE3       29.84F HX  92
Chicago O`Hare MOSUNNY   93  62  35 SW10G17   30.04F HX  93
Chicago Midway MOSUNNY   93  65  39 SW10      30.04F HX  95
Houston Bush   MOSUNNY   89  71  55 SE12      29.96F HX  95
Houston Hobby  MOSUNNY   90  72  55 E9        29.95F HX  97
Nashville      MOSUNNY   88  63  43 S3        30.04F
Atlanta        MOSUNNY   85  64  49 N8        30.03F

$$

GAZ044-118-TXZ119-213-NCZ071-DCZ001-MDZ014-506-PAZ021-071-NJZ106-
NYZ176-178-MAZ106-OHZ011-021-055-MIZ076-KYZ091-ILZ014-INZ047-
MNZ060-ONZ431-222000-

...Gateway Observations for Savannah International...

CITY           SKY/WX    TMP DP  RH WIND       PRES   REMARKS
Savannah Arpt  MOSUNNY   88  69  53 CALM      29.99F HX  92
Atlanta        MOSUNNY   85  64  49 N8        30.03F
Charlotte      MOSUNNY   87  64  46 SE6       30.06F
Dallas DFW     PTSUNNY   90  69  50 SE12G20   29.94F HX  94
Houston Bush   MOSUNNY   89  71  55 SE12      29.96F HX  95
Wash National  CLOUDY    83  66  56 NW10      30.02F
Wash Dulles    CLOUDY    82  63  52 N8        30.03F
Baltimore      CLOUDY    81  65  58 NW10      30.00F
Philadelphia   PTSUNNY   82  55  39 NW13      29.97F
Newark         PTSUNNY   85  55  35 NW17      29.95F
Laguardia      MOSUNNY   80  58  46 N14G24    29.94F
J F K          PTSUNNY   83  57  41 N17G26    29.94F
Boston         CLOUDY    60  57  89 N22G32    29.99F
Pittsburg      PTSUNNY   86  56  35 N6        30.11F
Akron          CLOUDY    85  62  46 CALM      30.12F
Cleveland      MOSUNNY   88  62  41 N13       30.11F
Cincinnati     MOSUNNY   88  69  53 SE7       30.08F HX  92
Columbus       MOSUNNY   85  64  48 SE3       30.08F
Detroit        MOSUNNY   87  70  56 S5        30.10F HX  92
Chicago O`Hare MOSUNNY   93  62  35 SW10G17   30.04F HX  93
Minneapolis    MOSUNNY   91  72  53 S15G23    29.81F HX  98
Indianapolis   MOSUNNY   90  66  45 E6        30.07F HX  92
Toronto Canada MOSUNNY   81  57  44 E10       30.12F

$$




USA.gov is the U.S. government's official web portal to all federal, state and local government web resources and services.